Preview of NWS' New Version of Forecast
This preview is not operational and should not be used for support decisions.

Regional Weather Roundup (RWR)

Issued by National Weather Service (NWS)

                            
975 
ASUS43 KTOP 261459
RWRKS 

WEATHER ROUNDUP FOR KANSAS
NATIONAL WEATHER SERVICE GOODLAND KS
1000 AM CDT TUE MAR 26 2019

NOTE:  "FAIR" INDICATES FEW OR NO CLOUDS BELOW 12,000 FEET WITH NO
SIGNIFICANT WEATHER AND/OR OBSTRUCTIONS TO VISIBILITY.

KSZ001>006-013>018-027>032-041>047-261600-
NORTHWEST KANSAS
  
CITY           SKY/WX    TMP DP  RH WIND       PRES   REMARKS
GOODLAND       SUNNY     47  42  83 SW17      30.24F                  
HAYS           SUNNY     47  43  86 SW10      30.34R                  
HILL CITY      SUNNY     45  41  86 CALM      30.30S                  
RUSSELL        SUNNY     48  45  89 SW12      30.33R                  
$$

KSZ061>065-074>080-084>089-261600-
SOUTHWEST KANSAS
  
CITY           SKY/WX    TMP DP  RH WIND       PRES   REMARKS
DODGE CITY     SUNNY     49  44  83 S13       30.33R                  
GARDEN CITY    SUNNY     47  45  93 S8        30.31S                  
GREAT BEND     SUNNY     50  43  77 SW9       30.35S                  
LIBERAL        MOSUNNY   51  45  79 SW14      30.33S                  
$$

KSZ066>073-081>083-090>101-261600-
SOUTHEAST KANSAS
  
CITY           SKY/WX    TMP DP  RH WIND       PRES   REMARKS
CHANUTE        SUNNY     50  43  77 CALM      30.40S                  
COFFEYVILLE    SUNNY     50  45  83 NW3       30.40R                  
HUTCHINSON     SUNNY     49  43  80 S3        30.37R                  
MEDICINE LODGE   N/A     47  44  90 S5        30.37R                  
NEWTON         MOSUNNY   49  44  83 SW5       30.39R                  
PARSONS        SUNNY     49  44  83 CALM      30.41R                  
WICHITA INTL   MOSUNNY   49  44  83 S6        30.38R                  
WICHITA JABRA  SUNNY     50  44  80 S6        30.38R                  
WICHITA MCCONL SUNNY     50  46  85 SE6       30.38R                  
WINFIELD       SUNNY     49  45  86 S6        30.40S                  
$$

KSZ007>012-019>026-033>040-048>060-102>105-261600-
NORTHEAST KANSAS
  
CITY           SKY/WX    TMP DP  RH WIND       PRES   REMARKS
CONCORDIA      CLOUDY    49  43  80 S7        30.34R                  
EMPORIA        MOSUNNY   45  45 100 SE5       30.39S FOG              
LAWRENCE       SUNNY     46  40  79 SE6       30.40S                  
MANHATTAN      CLOUDY    48  41  76 SE3       30.38R                  
OLATHE IND     MOSUNNY   48  40  73 SE9       30.40S                  
OLATHE EXE     SUNNY     46  39  76 SE7       30.40R                  
SALINA         MOSUNNY   47  42  83 S3        30.37R                  
TOPEKA BILLARD SUNNY     46  40  79 E3        30.40R                  
TOPEKA FORBES  MOSUNNY   47  41  80 SE8       30.39R                  
$$